Tracking 27419 objects as of 10-Jun-2023
HD Live streaming from Space Station
objects crossing your sky now

STARLINK-4776

Track STARLINK-4776 now!
10-day predictions
STARLINK-4776 is classified as:


NORAD ID: 53837
Int'l Code: 2022-114V
Perigee: 546.1 km
Apogee: 547.7 km
Inclination: 53.2 °
Period: 95.4 minutes
Semi major axis: 6917 km
RCS: Unknown
Launch date: September 19, 2022
Source: United States (US)
Launch site: AIR FORCE EASTERN TEST RANGE (AFETR)
Your satellite tracking list
Your tracking list is empty




NASA's NSSDC Master Catalog

Two Line Element Set (TLE):
1 53837U 22114V   23160.34542232 -.00000255  00000-0  20402-5 0  9999
2 53837  53.2160 132.5024 0001156  87.4541 272.6583 15.08838880 41214
Source of the keplerian elements: AFSPC